TimeCDT,TemperatureF,Dew PointF,Humidity,Sea Level PressureIn,VisibilityMPH,Wind Direction,Wind SpeedMPH,Gust SpeedMPH,PrecipitationIn,Events,Conditions,WindDirDegrees,DateUTC
12:15 AM,57.2,50.0,77,30.20,10.0,SSW,9.2,-,N/A,,Clear,210,2013-09-11 05:15:00
12:35 AM,57.2,50.0,77,30.21,10.0,SSW,11.5,-,N/A,,Clear,210,2013-09-11 05:35:00
12:55 AM,55.4,50.0,82,30.21,10.0,South,6.9,-,N/A,,Clear,190,2013-09-11 05:55:00
1:15 AM,55.4,50.0,82,30.21,10.0,SSW,10.4,-,N/A,,Clear,200,2013-09-11 06:15:00
1:35 AM,55.4,48.2,77,30.21,10.0,SW,6.9,-,N/A,,Clear,230,2013-09-11 06:35:00
1:55 AM,53.6,48.2,82,30.21,10.0,Calm,Calm,-,N/A,,Clear,0,2013-09-11 06:55:00
2:15 AM,55.4,48.2,77,30.22,10.0,Calm,Calm,-,N/A,,Clear,0,2013-09-11 07:15:00
2:35 AM,55.4,48.2,77,30.22,10.0,SSW,3.5,-,N/A,,Clear,210,2013-09-11 07:35:00
2:55 AM,53.6,48.2,82,30.22,10.0,SSW,4.6,-,N/A,,Clear,210,2013-09-11 07:55:00
3:15 AM,55.4,48.2,77,30.22,10.0,SW,8.1,-,N/A,,Clear,220,2013-09-11 08:15:00
3:35 AM,53.6,48.2,82,30.22,10.0,SSW,5.8,-,N/A,,Clear,210,2013-09-11 08:35:00
3:55 AM,55.4,48.2,77,30.22,10.0,Calm,Calm,-,N/A,,Clear,0,2013-09-11 08:55:00
4:15 AM,55.4,46.4,72,30.22,10.0,Calm,Calm,-,N/A,,Clear,0,2013-09-11 09:15:00
4:35 AM,53.6,46.4,77,30.22,10.0,South,5.8,-,N/A,,Clear,180,2013-09-11 09:35:00
4:55 AM,53.6,46.4,77,30.23,10.0,Calm,Calm,-,N/A,,Clear,0,2013-09-11 09:55:00
5:15 AM,53.6,46.4,77,30.23,10.0,Calm,Calm,-,N/A,,Clear,0,2013-09-11 10:15:00
5:35 AM,53.6,46.4,77,30.23,10.0,SSW,6.9,-,N/A,,Clear,200,2013-09-11 10:35:00
5:55 AM,51.8,46.4,82,30.23,10.0,Calm,Calm,-,N/A,,Clear,0,2013-09-11 10:55:00
6:15 AM,53.6,44.6,72,30.23,10.0,Calm,Calm,-,N/A,,Clear,0,2013-09-11 11:15:00
6:35 AM,53.6,44.6,72,30.24,10.0,SSW,5.8,-,N/A,,Clear,210,2013-09-11 11:35:00
6:55 AM,53.6,46.4,77,30.24,10.0,Calm,Calm,-,N/A,,Clear,0,2013-09-11 11:55:00
7:15 AM,55.4,46.4,72,30.24,10.0,Calm,Calm,-,N/A,,Clear,0,2013-09-11 12:15:00
7:35 AM,55.4,46.4,72,30.25,10.0,SW,3.5,-,N/A,,Clear,220,2013-09-11 12:35:00
7:55 AM,55.4,46.4,72,30.25,10.0,SW,4.6,-,N/A,,Clear,220,2013-09-11 12:55:00
8:15 AM,55.4,48.2,77,30.26,10.0,Calm,Calm,-,N/A,,Clear,0,2013-09-11 13:15:00
8:35 AM,57.2,50.0,77,30.25,10.0,Calm,Calm,-,N/A,,Clear,0,2013-09-11 13:35:00
8:55 AM,59.0,50.0,72,30.26,10.0,Calm,Calm,-,N/A,,Clear,0,2013-09-11 13:55:00
9:15 AM,60.8,50.0,68,30.26,10.0,Calm,Calm,-,N/A,,Clear,0,2013-09-11 14:15:00
9:35 AM,64.4,51.8,64,30.27,10.0,Calm,Calm,-,N/A,,Clear,0,2013-09-11 14:35:00
9:55 AM,66.2,50.0,56,30.27,10.0,West,3.5,-,N/A,,Clear,260,2013-09-11 14:55:00
10:15 AM,69.8,50.0,49,30.27,10.0,WNW,3.5,-,N/A,,Clear,290,2013-09-11 15:15:00
10:35 AM,71.6,46.4,41,30.28,10.0,Calm,Calm,-,N/A,,Clear,0,2013-09-11 15:35:00
10:55 AM,73.4,46.4,38,30.28,10.0,Calm,Calm,-,N/A,,Clear,0,2013-09-11 15:55:00
11:15 AM,73.4,44.6,36,30.28,10.0,SSE,3.5,-,N/A,,Clear,150,2013-09-11 16:15:00
11:35 AM,73.4,46.4,38,30.27,10.0,NE,4.6,-,N/A,,Clear,40,2013-09-11 16:35:00
11:55 AM,73.4,46.4,38,30.28,10.0,NE,4.6,-,N/A,,Clear,50,2013-09-11 16:55:00
12:15 PM,75.2,46.4,36,30.27,10.0,ENE,5.8,-,N/A,,Clear,60,2013-09-11 17:15:00
12:35 PM,75.2,46.4,36,30.27,10.0,NE,5.8,-,N/A,,Clear,40,2013-09-11 17:35:00
12:55 PM,77.0,46.4,34,30.27,10.0,NE,3.5,-,N/A,,Clear,40,2013-09-11 17:55:00
1:15 PM,75.2,44.6,34,30.27,10.0,NNE,6.9,-,N/A,,Clear,30,2013-09-11 18:15:00
1:35 PM,75.2,46.4,36,30.27,10.0,NE,6.9,-,N/A,,Clear,50,2013-09-11 18:35:00
1:55 PM,75.2,46.4,36,30.27,10.0,North,4.6,-,N/A,,Clear,10,2013-09-11 18:55:00
2:15 PM,77.0,46.4,34,30.27,10.0,ENE,3.5,-,N/A,,Clear,60,2013-09-11 19:15:00
2:35 PM,75.2,46.4,36,30.27,10.0,NNE,9.2,-,N/A,,Clear,20,2013-09-11 19:35:00
2:55 PM,75.2,44.6,34,30.27,10.0,NE,4.6,-,N/A,,Clear,50,2013-09-11 19:55:00
3:15 PM,77.0,46.4,34,30.27,10.0,NE,6.9,-,N/A,,Clear,40,2013-09-11 20:15:00
3:35 PM,77.0,44.6,32,30.26,10.0,North,3.5,-,N/A,,Clear,350,2013-09-11 20:35:00
3:55 PM,77.0,44.6,32,30.26,10.0,East,5.8,-,N/A,,Clear,90,2013-09-11 20:55:00
4:15 PM,77.0,46.4,34,30.26,10.0,NE,8.1,-,N/A,,Clear,50,2013-09-11 21:15:00
4:35 PM,77.0,46.4,34,30.25,10.0,North,3.5,-,N/A,,Clear,350,2013-09-11 21:35:00
4:55 PM,75.2,48.2,38,30.25,10.0,NNE,4.6,-,N/A,,Clear,20,2013-09-11 21:55:00
5:15 PM,75.2,46.4,36,30.26,10.0,ENE,6.9,-,N/A,,Clear,70,2013-09-11 22:15:00
5:35 PM,75.2,48.2,38,30.25,10.0,ENE,3.5,-,N/A,,Clear,70,2013-09-11 22:35:00
5:55 PM,77.0,46.4,34,30.25,10.0,East,4.6,-,N/A,,Clear,80,2013-09-11 22:55:00
6:15 PM,75.2,46.4,36,30.25,10.0,ENE,4.6,-,N/A,,Clear,70,2013-09-11 23:15:00
6:35 PM,73.4,50.0,44,30.25,10.0,East,5.8,-,N/A,,Clear,80,2013-09-11 23:35:00
6:55 PM,71.6,50.0,46,30.25,10.0,SE,5.8,-,N/A,,Clear,130,2013-09-11 23:55:00
7:15 PM,68.0,50.0,52,30.26,10.0,SSE,8.1,-,N/A,,Clear,150,2013-09-12 00:15:00
7:35 PM,66.2,50.0,56,30.26,10.0,SE,3.5,-,N/A,,Clear,140,2013-09-12 00:35:00
7:55 PM,64.4,50.0,59,30.27,10.0,South,5.8,-,N/A,,Clear,190,2013-09-12 00:55:00
8:15 PM,64.4,50.0,59,30.27,10.0,SSW,6.9,-,N/A,,Clear,210,2013-09-12 01:15:00
8:35 PM,64.4,50.0,59,30.28,10.0,South,5.8,-,N/A,,Clear,170,2013-09-12 01:35:00
8:55 PM,62.6,48.2,59,30.29,10.0,South,3.5,-,N/A,,Clear,170,2013-09-12 01:55:00
9:15 PM,60.8,50.0,68,30.29,10.0,SSW,8.1,-,N/A,,Clear,200,2013-09-12 02:15:00
9:35 PM,60.8,48.2,63,30.29,10.0,South,8.1,-,N/A,,Clear,190,2013-09-12 02:35:00
9:55 PM,60.8,48.2,63,30.29,10.0,South,5.8,-,N/A,,Clear,170,2013-09-12 02:55:00
10:15 PM,60.8,48.2,63,30.29,10.0,SSW,3.5,-,N/A,,Clear,210,2013-09-12 03:15:00
10:35 PM,59.0,48.2,67,30.30,10.0,SSW,6.9,-,N/A,,Clear,210,2013-09-12 03:35:00
10:55 PM,59.0,48.2,67,30.30,10.0,South,4.6,-,N/A,,Clear,180,2013-09-12 03:55:00
11:15 PM,57.2,48.2,72,30.31,10.0,Calm,Calm,-,N/A,,Clear,0,2013-09-12 04:15:00
11:35 PM,57.2,48.2,72,30.32,10.0,South,8.1,-,N/A,,Clear,190,2013-09-12 04:35:00
11:55 PM,57.2,46.4,67,30.32,10.0,SSW,8.1,-,N/A,,Clear,200,2013-09-12 04:55:00